Lage;Zeitpunkt der Messung;Wochentag;Fu�g�nger insgesamt;Temperatur in �c;Wetterlage;Fu�g�nger insgesamt Richtung Neumarkt;Fu�g�nger insgesamt Richtung Neuer Wall;Erwachsene;Kinder;Erwachsene Richtung Neumarkt;Erwachsene Richtung Neuer Wall;Kinder Richtung Neumarkt;Kinder Richtung Neuer Wall
Steinstra�e;2022-10-01 00:00:00 +0200;Saturday;29;12;cloudy;17;12;29;0;17;12;0;0
Steinstra�e;2022-10-01 01:00:00 +0200;Saturday;14;12;cloudy;8;6;13;1;8;5;0;1
Steinstra�e;2022-10-01 02:00:00 +0200;Saturday;3;12;rain;3;0;3;0;3;0;0;0
Steinstra�e;2022-10-01 03:00:00 +0200;Saturday;3;11;rain;0;3;3;0;0;3;0;0
Steinstra�e;2022-10-01 04:00:00 +0200;Saturday;8;10;rain;2;6;8;0;2;6;0;0
Steinstra�e;2022-10-01 05:00:00 +0200;Saturday;8;10;rain;7;1;8;0;7;1;0;0
Steinstra�e;2022-10-01 06:00:00 +0200;Saturday;21;10;rain;13;8;20;1;12;8;1;0
Steinstra�e;2022-10-01 07:00:00 +0200;Saturday;34;11;rain;14;20;30;4;14;16;0;4
Steinstra�e;2022-10-01 08:00:00 +0200;Saturday;63;12;rain;41;22;63;0;41;22;0;0
Steinstra�e;2022-10-01 09:00:00 +0200;Saturday;320;12;rain;159;161;302;18;151;151;8;10
Steinstra�e;2022-10-01 10:00:00 +0200;Saturday;885;13;rain;430;455;855;30;415;440;15;15
Steinstra�e;2022-10-01 11:00:00 +0200;Saturday;895;14;rain;432;463;870;25;419;451;13;12
Steinstra�e;2022-10-01 12:00:00 +0200;Saturday;1711;15;rain;844;867;1668;43;822;846;22;21
Steinstra�e;2022-10-01 13:00:00 +0200;Saturday;1943;16;rain;955;988;1881;62;916;965;39;23
Steinstra�e;2022-10-01 14:00:00 +0200;Saturday;1934;15;rain;935;999;1874;60;904;970;31;29
Steinstra�e;2022-10-01 15:00:00 +0200;Saturday;1790;16;rain;900;890;1736;54;869;867;31;23
Steinstra�e;2022-10-01 16:00:00 +0200;Saturday;1823;16;rain;927;896;1743;80;891;852;36;44
Steinstra�e;2022-10-01 17:00:00 +0200;Saturday;1455;16;rain;718;737;1391;64;683;708;35;29
Steinstra�e;2022-10-01 18:00:00 +0200;Saturday;765;16;partly-cloudy-day;386;379;731;34;368;363;18;16
Steinstra�e;2022-10-01 19:00:00 +0200;Saturday;282;15;partly-cloudy-day;146;136;277;5;145;132;1;4
Steinstra�e;2022-10-01 20:00:00 +0200;Saturday;199;13;partly-cloudy-night;114;85;195;4;111;84;3;1
Steinstra�e;2022-10-01 21:00:00 +0200;Saturday;178;13;clear-night;92;86;178;0;92;86;0;0
Steinstra�e;2022-10-01 22:00:00 +0200;Saturday;124;12;clear-night;32;92;122;2;31;91;1;1
Steinstra�e;2022-10-01 23:00:00 +0200;Saturday;64;12;partly-cloudy-night;17;47;64;0;17;47;0;0
Steinstra�e;2022-10-02 00:00:00 +0200;Sunday;49;11;clear-night;26;23;48;1;25;23;1;0
Steinstra�e;2022-10-02 01:00:00 +0200;Sunday;28;11;partly-cloudy-night;8;20;26;2;6;20;2;0
Steinstra�e;2022-10-02 02:00:00 +0200;Sunday;6;12;rain;3;3;6;0;3;3;0;0
Steinstra�e;2022-10-02 03:00:00 +0200;Sunday;2;12;rain;2;0;2;0;2;0;0;0
Steinstra�e;2022-10-02 04:00:00 +0200;Sunday;2;13;partly-cloudy-night;0;2;2;0;0;2;0;0
Steinstra�e;2022-10-02 05:00:00 +0200;Sunday;5;13;partly-cloudy-night;2;3;5;0;2;3;0;0
Steinstra�e;2022-10-02 06:00:00 +0200;Sunday;11;13;rain;2;9;11;0;2;9;0;0
Steinstra�e;2022-10-02 07:00:00 +0200;Sunday;19;13;rain;9;10;17;2;9;8;0;2
Steinstra�e;2022-10-02 08:00:00 +0200;Sunday;64;13;rain;32;32;62;2;30;32;2;0
Steinstra�e;2022-10-02 09:00:00 +0200;Sunday;174;13;rain;107;67;164;10;99;65;8;2
Steinstra�e;2022-10-02 10:00:00 +0200;Sunday;405;14;rain;211;194;391;14;204;187;7;7
Steinstra�e;2022-10-02 11:00:00 +0200;Sunday;1163;14;rain;584;579;1123;40;568;555;16;24
Steinstra�e;2022-10-02 12:00:00 +0200;Sunday;3250;15;rain;1642;1608;3121;129;1564;1557;78;51
Steinstra�e;2022-10-02 13:00:00 +0200;Sunday;5492;16;cloudy;2671;2821;5327;165;2583;2744;88;77
Steinstra�e;2022-10-02 14:00:00 +0200;Sunday;6983;17;cloudy;3658;3325;6684;299;3501;3183;157;142
Steinstra�e;2022-10-02 15:00:00 +0200;Sunday;6660;17;cloudy;3325;3335;6355;305;3159;3196;166;139
Steinstra�e;2022-10-02 16:00:00 +0200;Sunday;5646;17;cloudy;2826;2820;5379;267;2684;2695;142;125
Steinstra�e;2022-10-02 17:00:00 +0200;Sunday;3705;17;partly-cloudy-day;1927;1778;3521;184;1818;1703;109;75
Steinstra�e;2022-10-02 18:00:00 +0200;Sunday;1396;16;partly-cloudy-day;698;698;1343;53;669;674;29;24
Steinstra�e;2022-10-02 19:00:00 +0200;Sunday;486;15;partly-cloudy-day;224;262;467;19;214;253;10;9
Steinstra�e;2022-10-02 20:00:00 +0200;Sunday;323;14;partly-cloudy-night;131;192;321;2;129;192;2;0
Steinstra�e;2022-10-02 21:00:00 +0200;Sunday;236;13;partly-cloudy-night;91;145;234;2;90;144;1;1
Steinstra�e;2022-10-02 22:00:00 +0200;Sunday;242;12;partly-cloudy-night;72;170;240;2;72;168;0;2
Steinstra�e;2022-10-02 23:00:00 +0200;Sunday;58;11;clear-night;11;47;57;1;11;46;0;1
Steinstra�e;2022-10-03 00:00:00 +0200;Monday;21;10;clear-night;12;9;20;1;11;9;1;0
Steinstra�e;2022-10-03 01:00:00 +0200;Monday;7;10;clear-night;5;2;7;0;5;2;0;0
Steinstra�e;2022-10-03 02:00:00 +0200;Monday;6;9;clear-night;2;4;6;0;2;4;0;0
Steinstra�e;2022-10-03 03:00:00 +0200;Monday;3;9;partly-cloudy-night;1;2;3;0;1;2;0;0
Steinstra�e;2022-10-03 04:00:00 +0200;Monday;1;9;partly-cloudy-night;0;1;1;0;0;1;0;0
Steinstra�e;2022-10-03 05:00:00 +0200;Monday;3;9;partly-cloudy-night;1;2;3;0;1;2;0;0
Steinstra�e;2022-10-03 06:00:00 +0200;Monday;5;8;partly-cloudy-night;4;1;5;0;4;1;0;0
Steinstra�e;2022-10-03 07:00:00 +0200;Monday;19;8;partly-cloudy-night;12;7;19;0;12;7;0;0
Steinstra�e;2022-10-03 08:00:00 +0200;Monday;20;8;partly-cloudy-day;15;5;20;0;15;5;0;0
Steinstra�e;2022-10-03 09:00:00 +0200;Monday;95;8;partly-cloudy-day;54;41;91;4;52;39;2;2
Steinstra�e;2022-10-03 10:00:00 +0200;Monday;163;10;partly-cloudy-day;85;78;153;10;79;74;6;4
Steinstra�e;2022-10-03 11:00:00 +0200;Monday;312;12;partly-cloudy-day;147;165;301;11;143;158;4;7
Steinstra�e;2022-10-03 12:00:00 +0200;Monday;449;14;partly-cloudy-day;241;208;428;21;229;199;12;9
Steinstra�e;2022-10-03 13:00:00 +0200;Monday;494;15;partly-cloudy-day;245;249;475;19;237;238;8;11
Steinstra�e;2022-10-03 14:00:00 +0200;Monday;579;16;cloudy;325;254;548;31;305;243;20;11
Steinstra�e;2022-10-03 15:00:00 +0200;Monday;691;17;cloudy;347;344;655;36;328;327;19;17
Steinstra�e;2022-10-03 16:00:00 +0200;Monday;586;17;cloudy;291;295;565;21;286;279;5;16
Steinstra�e;2022-10-03 17:00:00 +0200;Monday;405;17;cloudy;193;212;397;8;188;209;5;3
Steinstra�e;2022-10-03 18:00:00 +0200;Monday;381;16;cloudy;197;184;368;13;190;178;7;6
Steinstra�e;2022-10-03 19:00:00 +0200;Monday;283;15;cloudy;159;124;275;8;155;120;4;4
Steinstra�e;2022-10-03 20:00:00 +0200;Monday;188;14;cloudy;83;105;186;2;82;104;1;1
Steinstra�e;2022-10-03 21:00:00 +0200;Monday;90;13;cloudy;30;60;89;1;29;60;1;0
Steinstra�e;2022-10-03 22:00:00 +0200;Monday;52;12;partly-cloudy-night;16;36;52;0;16;36;0;0
Steinstra�e;2022-10-03 23:00:00 +0200;Monday;12;11;cloudy;7;5;12;0;7;5;0;0
Steinstra�e;2022-10-04 00:00:00 +0200;Tuesday;12;11;partly-cloudy-night;8;4;12;0;8;4;0;0
Steinstra�e;2022-10-04 01:00:00 +0200;Tuesday;5;10;partly-cloudy-night;0;5;5;0;0;5;0;0
Steinstra�e;2022-10-04 02:00:00 +0200;Tuesday;0;10;partly-cloudy-night;0;0;0;0;0;0;0;0
Steinstra�e;2022-10-04 03:00:00 +0200;Tuesday;2;10;partly-cloudy-night;2;0;2;0;2;0;0;0
Steinstra�e;2022-10-04 04:00:00 +0200;Tuesday;7;10;cloudy;1;6;7;0;1;6;0;0
Steinstra�e;2022-10-04 05:00:00 +0200;Tuesday;8;9;cloudy;5;3;8;0;5;3;0;0
Steinstra�e;2022-10-04 06:00:00 +0200;Tuesday;42;9;cloudy;29;13;40;2;28;12;1;1
Steinstra�e;2022-10-04 07:00:00 +0200;Tuesday;116;8;cloudy;77;39;111;5;73;38;4;1
Steinstra�e;2022-10-04 08:00:00 +0200;Tuesday;317;9;cloudy;163;154;304;13;155;149;8;5
Steinstra�e;2022-10-04 09:00:00 +0200;Tuesday;871;9;cloudy;440;431;834;37;422;412;18;19
Steinstra�e;2022-10-04 10:00:00 +0200;Tuesday;1668;11;partly-cloudy-day;812;856;1599;69;776;823;36;33
Steinstra�e;2022-10-04 11:00:00 +0200;Tuesday;2015;12;partly-cloudy-day;978;1037;1929;86;931;998;47;39
Steinstra�e;2022-10-04 12:00:00 +0200;Tuesday;2072;14;partly-cloudy-day;1058;1014;1984;88;1007;977;51;37
Steinstra�e;2022-10-04 13:00:00 +0200;Tuesday;1883;16;partly-cloudy-day;909;974;1819;64;873;946;36;28
Steinstra�e;2022-10-04 14:00:00 +0200;Tuesday;1743;17;partly-cloudy-day;874;869;1665;78;829;836;45;33
Steinstra�e;2022-10-04 15:00:00 +0200;Tuesday;1922;18;clear-day;959;963;1840;82;921;919;38;44
Steinstra�e;2022-10-04 16:00:00 +0200;Tuesday;1888;19;partly-cloudy-day;936;952;1780;108;886;894;50;58
Steinstra�e;2022-10-04 17:00:00 +0200;Tuesday;1583;19;clear-day;847;736;1518;65;804;714;43;22
Steinstra�e;2022-10-04 18:00:00 +0200;Tuesday;961;18;partly-cloudy-day;481;480;924;37;460;464;21;16
Steinstra�e;2022-10-04 19:00:00 +0200;Tuesday;291;16;partly-cloudy-night;126;165;285;6;124;161;2;4
Steinstra�e;2022-10-04 20:00:00 +0200;Tuesday;130;15;partly-cloudy-night;68;62;129;1;68;61;0;1
Steinstra�e;2022-10-04 21:00:00 +0200;Tuesday;89;14;partly-cloudy-night;48;41;88;1;47;41;1;0
Steinstra�e;2022-10-04 22:00:00 +0200;Tuesday;52;13;cloudy;19;33;50;2;17;33;2;0
Steinstra�e;2022-10-04 23:00:00 +0200;Tuesday;20;13;partly-cloudy-night;6;14;20;0;6;14;0;0
Steinstra�e;2022-10-05 00:00:00 +0200;Wednesday;8;12;partly-cloudy-night;5;3;8;0;5;3;0;0
Steinstra�e;2022-10-05 01:00:00 +0200;Wednesday;11;12;partly-cloudy-night;8;3;10;1;7;3;1;0
Steinstra�e;2022-10-05 02:00:00 +0200;Wednesday;8;12;partly-cloudy-night;0;8;8;0;0;8;0;0
Steinstra�e;2022-10-05 03:00:00 +0200;Wednesday;4;12;cloudy;3;1;4;0;3;1;0;0
Steinstra�e;2022-10-05 04:00:00 +0200;Wednesday;9;11;cloudy;3;6;9;0;3;6;0;0
Steinstra�e;2022-10-05 05:00:00 +0200;Wednesday;13;12;cloudy;8;5;13;0;8;5;0;0
Steinstra�e;2022-10-05 06:00:00 +0200;Wednesday;37;11;partly-cloudy-night;25;12;37;0;25;12;0;0
Steinstra�e;2022-10-05 07:00:00 +0200;Wednesday;115;11;cloudy;65;50;113;2;64;49;1;1
Steinstra�e;2022-10-05 08:00:00 +0200;Wednesday;250;11;cloudy;132;118;242;8;128;114;4;4
Steinstra�e;2022-10-05 09:00:00 +0200;Wednesday;594;12;partly-cloudy-day;311;283;562;32;292;270;19;13
Steinstra�e;2022-10-05 10:00:00 +0200;Wednesday;1059;14;partly-cloudy-day;501;558;1014;45;481;533;20;25
Steinstra�e;2022-10-05 11:00:00 +0200;Wednesday;1353;16;partly-cloudy-day;667;686;1298;55;634;664;33;22
Steinstra�e;2022-10-05 12:00:00 +0200;Wednesday;1621;17;partly-cloudy-day;825;796;1553;68;790;763;35;33
Steinstra�e;2022-10-05 13:00:00 +0200;Wednesday;1450;19;partly-cloudy-day;771;679;1380;70;733;647;38;32
Steinstra�e;2022-10-05 14:00:00 +0200;Wednesday;1382;20;partly-cloudy-day;670;712;1341;41;648;693;22;19
Steinstra�e;2022-10-05 15:00:00 +0200;Wednesday;1502;21;partly-cloudy-day;770;732;1452;50;736;716;34;16
Steinstra�e;2022-10-05 16:00:00 +0200;Wednesday;1584;21;partly-cloudy-day;806;778;1503;81;761;742;45;36
Steinstra�e;2022-10-05 17:00:00 +0200;Wednesday;1517;21;partly-cloudy-day;761;756;1443;74;718;725;43;31
Steinstra�e;2022-10-05 18:00:00 +0200;Wednesday;792;20;partly-cloudy-day;408;384;766;26;394;372;14;12
Steinstra�e;2022-10-05 19:00:00 +0200;Wednesday;392;19;partly-cloudy-night;209;183;380;12;203;177;6;6
Steinstra�e;2022-10-05 20:00:00 +0200;Wednesday;172;18;partly-cloudy-night;78;94;169;3;76;93;2;1
Steinstra�e;2022-10-05 21:00:00 +0200;Wednesday;144;18;partly-cloudy-night;51;93;143;1;51;92;0;1
Steinstra�e;2022-10-05 22:00:00 +0200;Wednesday;58;18;partly-cloudy-night;24;34;57;1;24;33;0;1
Steinstra�e;2022-10-05 23:00:00 +0200;Wednesday;34;18;partly-cloudy-night;19;15;34;0;19;15;0;0
Steinstra�e;2022-10-06 00:00:00 +0200;Thursday;11;17;partly-cloudy-night;4;7;11;0;4;7;0;0
Steinstra�e;2022-10-06 01:00:00 +0200;Thursday;5;16;cloudy;4;1;5;0;4;1;0;0
Steinstra�e;2022-10-06 02:00:00 +0200;Thursday;8;15;partly-cloudy-night;4;4;8;0;4;4;0;0
Steinstra�e;2022-10-06 03:00:00 +0200;Thursday;8;14;partly-cloudy-night;5;3;8;0;5;3;0;0
Steinstra�e;2022-10-06 04:00:00 +0200;Thursday;22;13;partly-cloudy-night;8;14;21;1;7;14;1;0
Steinstra�e;2022-10-06 05:00:00 +0200;Thursday;8;12;partly-cloudy-night;4;4;8;0;4;4;0;0
Steinstra�e;2022-10-06 06:00:00 +0200;Thursday;55;12;partly-cloudy-night;27;28;52;3;26;26;1;2
Steinstra�e;2022-10-06 07:00:00 +0200;Thursday;132;11;partly-cloudy-night;78;54;128;4;75;53;3;1
Steinstra�e;2022-10-06 08:00:00 +0200;Thursday;214;11;clear-day;122;92;209;5;119;90;3;2
Steinstra�e;2022-10-06 09:00:00 +0200;Thursday;624;11;clear-day;330;294;595;29;316;279;14;15
Steinstra�e;2022-10-06 10:00:00 +0200;Thursday;1152;12;clear-day;549;603;1106;46;524;582;25;21
Steinstra�e;2022-10-06 11:00:00 +0200;Thursday;1440;14;clear-day;719;721;1365;75;681;684;38;37
Steinstra�e;2022-10-06 12:00:00 +0200;Thursday;1611;15;partly-cloudy-day;820;791;1560;51;791;769;29;22
Steinstra�e;2022-10-06 13:00:00 +0200;Thursday;1620;15;partly-cloudy-day;809;811;1568;52;781;787;28;24
Steinstra�e;2022-10-06 14:00:00 +0200;Thursday;1534;17;clear-day;814;720;1478;56;776;702;38;18
Steinstra�e;2022-10-06 15:00:00 +0200;Thursday;1575;17;clear-day;733;842;1503;72;701;802;32;40
Steinstra�e;2022-10-06 16:00:00 +0200;Thursday;1908;17;clear-day;983;925;1824;84;931;893;52;32
Steinstra�e;2022-10-06 17:00:00 +0200;Thursday;1415;17;clear-day;751;664;1349;66;716;633;35;31
Steinstra�e;2022-10-06 18:00:00 +0200;Thursday;843;16;clear-day;430;413;807;36;416;391;14;22
Steinstra�e;2022-10-06 19:00:00 +0200;Thursday;279;14;clear-night;158;121;272;7;153;119;5;2
Steinstra�e;2022-10-06 20:00:00 +0200;Thursday;163;13;clear-night;77;86;160;3;74;86;3;0
Steinstra�e;2022-10-06 21:00:00 +0200;Thursday;96;12;clear-night;48;48;95;1;48;47;0;1
Steinstra�e;2022-10-06 22:00:00 +0200;Thursday;81;11;clear-night;19;62;81;0;19;62;0;0
Steinstra�e;2022-10-06 23:00:00 +0200;Thursday;21;10;clear-night;10;11;21;0;10;11;0;0
Steinstra�e;2022-10-07 00:00:00 +0200;Friday;5;10;clear-night;2;3;4;1;1;3;1;0
Steinstra�e;2022-10-07 01:00:00 +0200;Friday;7;10;clear-night;5;2;6;1;4;2;1;0
Steinstra�e;2022-10-07 02:00:00 +0200;Friday;0;9;clear-night;0;0;0;0;0;0;0;0
Steinstra�e;2022-10-07 03:00:00 +0200;Friday;7;9;clear-night;3;4;4;3;0;4;3;0
Steinstra�e;2022-10-07 04:00:00 +0200;Friday;11;9;clear-night;5;6;11;0;5;6;0;0
Steinstra�e;2022-10-07 05:00:00 +0200;Friday;8;8;clear-night;3;5;7;1;3;4;0;1
Steinstra�e;2022-10-07 06:00:00 +0200;Friday;42;8;clear-night;30;12;42;0;30;12;0;0
Steinstra�e;2022-10-07 07:00:00 +0200;Friday;137;7;clear-night;74;63;135;2;73;62;1;1
Steinstra�e;2022-10-07 08:00:00 +0200;Friday;261;8;clear-day;140;121;253;8;134;119;6;2
Steinstra�e;2022-10-07 09:00:00 +0200;Friday;855;9;partly-cloudy-day;450;405;810;45;435;375;15;30
Steinstra�e;2022-10-07 10:00:00 +0200;Friday;1599;11;partly-cloudy-day;785;814;1528;71;754;774;31;40
Steinstra�e;2022-10-07 11:00:00 +0200;Friday;1998;13;partly-cloudy-day;1030;968;1908;90;979;929;51;39
Steinstra�e;2022-10-07 12:00:00 +0200;Friday;2025;15;partly-cloudy-day;1018;1007;1946;79;966;980;52;27
Steinstra�e;2022-10-07 13:00:00 +0200;Friday;1810;16;partly-cloudy-day;869;941;1724;86;831;893;38;48
Steinstra�e;2022-10-07 14:00:00 +0200;Friday;1634;18;partly-cloudy-day;787;847;1550;84;745;805;42;42
Steinstra�e;2022-10-07 15:00:00 +0200;Friday;1638;18;partly-cloudy-day;822;816;1565;73;784;781;38;35
Steinstra�e;2022-10-07 16:00:00 +0200;Friday;1792;19;partly-cloudy-day;883;909;1720;72;841;879;42;30
Steinstra�e;2022-10-07 17:00:00 +0200;Friday;1396;17;partly-cloudy-day;676;720;1351;45;653;698;23;22
Steinstra�e;2022-10-07 18:00:00 +0200;Friday;969;17;partly-cloudy-day;515;454;908;61;478;430;37;24
Steinstra�e;2022-10-07 19:00:00 +0200;Friday;361;15;partly-cloudy-night;169;192;350;11;163;187;6;5
Steinstra�e;2022-10-07 20:00:00 +0200;Friday;162;13;partly-cloudy-night;77;85;157;5;74;83;3;2
Steinstra�e;2022-10-07 21:00:00 +0200;Friday;100;13;partly-cloudy-night;41;59;98;2;41;57;0;2
Steinstra�e;2022-10-07 22:00:00 +0200;Friday;94;12;partly-cloudy-night;31;63;93;1;30;63;1;0
Steinstra�e;2022-10-07 23:00:00 +0200;Friday;57;11;clear-night;21;36;53;4;19;34;2;2
Steinstra�e;2022-10-08 00:00:00 +0200;Saturday;27;11;clear-night;17;10;27;0;17;10;0;0
Steinstra�e;2022-10-08 01:00:00 +0200;Saturday;18;10;partly-cloudy-night;12;6;18;0;12;6;0;0
Steinstra�e;2022-10-08 02:00:00 +0200;Saturday;3;10;partly-cloudy-night;0;3;3;0;0;3;0;0
Steinstra�e;2022-10-08 03:00:00 +0200;Saturday;3;10;partly-cloudy-night;2;1;3;0;2;1;0;0
Steinstra�e;2022-10-08 04:00:00 +0200;Saturday;4;10;partly-cloudy-night;1;3;4;0;1;3;0;0
Steinstra�e;2022-10-08 05:00:00 +0200;Saturday;5;11;partly-cloudy-night;2;3;5;0;2;3;0;0
Steinstra�e;2022-10-08 06:00:00 +0200;Saturday;16;11;partly-cloudy-night;9;7;16;0;9;7;0;0
Steinstra�e;2022-10-08 07:00:00 +0200;Saturday;23;11;partly-cloudy-night;16;7;23;0;16;7;0;0
Steinstra�e;2022-10-08 08:00:00 +0200;Saturday;90;11;rain;49;41;88;2;47;41;2;0
Steinstra�e;2022-10-08 09:00:00 +0200;Saturday;308;11;partly-cloudy-day;161;147;305;3;160;145;1;2
Steinstra�e;2022-10-08 10:00:00 +0200;Saturday;862;13;partly-cloudy-day;418;444;833;29;403;430;15;14
Steinstra�e;2022-10-08 11:00:00 +0200;Saturday;1580;14;partly-cloudy-day;798;782;1501;79;758;743;40;39
Steinstra�e;2022-10-08 12:00:00 +0200;Saturday;1971;14;partly-cloudy-day;984;987;1898;73;949;949;35;38
Steinstra�e;2022-10-08 13:00:00 +0200;Saturday;2095;15;partly-cloudy-day;1034;1061;2016;79;991;1025;43;36
Steinstra�e;2022-10-08 14:00:00 +0200;Saturday;2055;16;partly-cloudy-day;1054;1001;1978;77;1011;967;43;34
Steinstra�e;2022-10-08 15:00:00 +0200;Saturday;2048;16;partly-cloudy-day;987;1061;1949;99;933;1016;54;45
Steinstra�e;2022-10-08 16:00:00 +0200;Saturday;1964;16;partly-cloudy-day;976;988;1893;71;936;957;40;31
Steinstra�e;2022-10-08 17:00:00 +0200;Saturday;1365;15;partly-cloudy-day;702;663;1288;77;668;620;34;43
Steinstra�e;2022-10-08 18:00:00 +0200;Saturday;615;15;partly-cloudy-day;311;304;581;34;295;286;16;18
Steinstra�e;2022-10-08 19:00:00 +0200;Saturday;285;13;partly-cloudy-night;144;141;284;1;144;140;0;1
Steinstra�e;2022-10-08 20:00:00 +0200;Saturday;209;12;partly-cloudy-night;99;110;207;2;98;109;1;1
Steinstra�e;2022-10-08 21:00:00 +0200;Saturday;146;11;clear-night;64;82;146;0;64;82;0;0
Steinstra�e;2022-10-08 22:00:00 +0200;Saturday;126;10;clear-night;51;75;125;1;50;75;1;0
Steinstra�e;2022-10-08 23:00:00 +0200;Saturday;85;9;clear-night;26;59;85;0;26;59;0;0
Steinstra�e;2022-10-09 00:00:00 +0200;Sunday;37;8;clear-night;11;26;37;0;11;26;0;0
Steinstra�e;2022-10-09 01:00:00 +0200;Sunday;21;8;clear-night;15;6;21;0;15;6;0;0
Steinstra�e;2022-10-09 02:00:00 +0200;Sunday;10;7;clear-night;4;6;9;1;4;5;0;1
Steinstra�e;2022-10-09 03:00:00 +0200;Sunday;9;7;clear-night;6;3;9;0;6;3;0;0
Steinstra�e;2022-10-09 04:00:00 +0200;Sunday;9;7;clear-night;3;6;9;0;3;6;0;0
Steinstra�e;2022-10-09 05:00:00 +0200;Sunday;3;6;clear-night;2;1;3;0;2;1;0;0
Steinstra�e;2022-10-09 06:00:00 +0200;Sunday;5;6;clear-night;2;3;5;0;2;3;0;0
Steinstra�e;2022-10-09 07:00:00 +0200;Sunday;13;6;clear-night;8;5;12;1;7;5;1;0
Steinstra�e;2022-10-09 08:00:00 +0200;Sunday;36;6;clear-day;21;15;34;2;19;15;2;0
Steinstra�e;2022-10-09 09:00:00 +0200;Sunday;81;7;clear-day;54;27;79;2;52;27;2;0
Steinstra�e;2022-10-09 10:00:00 +0200;Sunday;149;9;clear-day;78;71;141;8;72;69;6;2
Steinstra�e;2022-10-09 11:00:00 +0200;Sunday;208;12;clear-day;137;71;198;10;129;69;8;2
Steinstra�e;2022-10-09 12:00:00 +0200;Sunday;261;13;clear-day;122;139;251;10;119;132;3;7
Steinstra�e;2022-10-09 13:00:00 +0200;Sunday;370;15;clear-day;203;167;354;16;193;161;10;6
Steinstra�e;2022-10-09 14:00:00 +0200;Sunday;468;16;clear-day;246;222;448;20;234;214;12;8
Steinstra�e;2022-10-09 15:00:00 +0200;Sunday;661;17;partly-cloudy-day;332;329;635;26;316;319;16;10
Steinstra�e;2022-10-09 16:00:00 +0200;Sunday;664;18;partly-cloudy-day;320;344;636;28;304;332;16;12
Steinstra�e;2022-10-09 17:00:00 +0200;Sunday;456;17;partly-cloudy-day;201;255;436;20;192;244;9;11
Steinstra�e;2022-10-09 18:00:00 +0200;Sunday;320;16;partly-cloudy-day;150;170;308;12;142;166;8;4
Steinstra�e;2022-10-09 19:00:00 +0200;Sunday;208;14;partly-cloudy-night;103;105;205;3;101;104;2;1
Steinstra�e;2022-10-09 20:00:00 +0200;Sunday;114;12;clear-night;54;60;108;6;50;58;4;2
Steinstra�e;2022-10-09 21:00:00 +0200;Sunday;74;12;clear-night;32;42;73;1;32;41;0;1
Steinstra�e;2022-10-09 22:00:00 +0200;Sunday;42;11;clear-night;20;22;41;1;20;21;0;1
Steinstra�e;2022-10-09 23:00:00 +0200;Sunday;23;10;clear-night;13;10;23;0;13;10;0;0
Steinstra�e;2022-10-10 00:00:00 +0200;Monday;6;10;clear-night;6;0;6;0;6;0;0;0
Steinstra�e;2022-10-10 01:00:00 +0200;Monday;13;10;clear-night;8;5;12;1;7;5;1;0
Steinstra�e;2022-10-10 02:00:00 +0200;Monday;3;11;clear-night;3;0;2;1;2;0;1;0
Steinstra�e;2022-10-10 03:00:00 +0200;Monday;1;11;clear-night;0;1;1;0;0;1;0;0
Steinstra�e;2022-10-10 04:00:00 +0200;Monday;11;10;clear-night;6;5;11;0;6;5;0;0
Steinstra�e;2022-10-10 05:00:00 +0200;Monday;12;10;clear-night;8;4;12;0;8;4;0;0
Steinstra�e;2022-10-10 06:00:00 +0200;Monday;50;10;clear-night;31;19;49;1;30;19;1;0
Steinstra�e;2022-10-10 07:00:00 +0200;Monday;92;9;partly-cloudy-night;62;30;87;5;59;28;3;2
Steinstra�e;2022-10-10 08:00:00 +0200;Monday;210;8;partly-cloudy-day;105;105;203;7;100;103;5;2
Steinstra�e;2022-10-10 09:00:00 +0200;Monday;578;7;cloudy;283;295;566;12;277;289;6;6
Steinstra�e;2022-10-10 10:00:00 +0200;Monday;1088;10;cloudy;536;552;1018;70;499;519;37;33
Steinstra�e;2022-10-10 11:00:00 +0200;Monday;1386;13;partly-cloudy-day;670;716;1335;51;647;688;23;28
Steinstra�e;2022-10-10 12:00:00 +0200;Monday;1522;15;partly-cloudy-day;744;778;1460;62;712;748;32;30
Steinstra�e;2022-10-10 13:00:00 +0200;Monday;1501;17;cloudy;776;725;1439;62;742;697;34;28
Steinstra�e;2022-10-10 14:00:00 +0200;Monday;1466;16;cloudy;737;729;1407;59;702;705;35;24
Steinstra�e;2022-10-10 15:00:00 +0200;Monday;1533;18;cloudy;784;749;1463;70;744;719;40;30
Steinstra�e;2022-10-10 16:00:00 +0200;Monday;1539;18;partly-cloudy-day;769;770;1470;69;728;742;41;28
Steinstra�e;2022-10-10 17:00:00 +0200;Monday;1184;16;cloudy;579;605;1150;34;562;588;17;17
Steinstra�e;2022-10-10 18:00:00 +0200;Monday;591;15;cloudy;324;267;568;23;308;260;16;7
Steinstra�e;2022-10-10 19:00:00 +0200;Monday;249;14;cloudy;139;110;241;8;134;107;5;3
Steinstra�e;2022-10-10 20:00:00 +0200;Monday;139;14;cloudy;82;57;137;2;80;57;2;0
Steinstra�e;2022-10-10 21:00:00 +0200;Monday;105;12;partly-cloudy-night;46;59;105;0;46;59;0;0
Steinstra�e;2022-10-10 22:00:00 +0200;Monday;59;11;clear-night;23;36;57;2;21;36;2;0
Steinstra�e;2022-10-10 23:00:00 +0200;Monday;15;9;clear-night;6;9;15;0;6;9;0;0
Steinstra�e;2022-10-11 00:00:00 +0200;Tuesday;8;9;clear-night;5;3;7;1;4;3;1;0
Steinstra�e;2022-10-11 01:00:00 +0200;Tuesday;9;8;clear-night;5;4;9;0;5;4;0;0
Steinstra�e;2022-10-11 02:00:00 +0200;Tuesday;2;7;clear-night;0;2;2;0;0;2;0;0
Steinstra�e;2022-10-11 03:00:00 +0200;Tuesday;0;7;clear-night;0;0;0;0;0;0;0;0
Steinstra�e;2022-10-11 04:00:00 +0200;Tuesday;11;7;clear-night;5;6;11;0;5;6;0;0
Steinstra�e;2022-10-11 05:00:00 +0200;Tuesday;12;6;clear-night;7;5;12;0;7;5;0;0
Steinstra�e;2022-10-11 06:00:00 +0200;Tuesday;45;6;partly-cloudy-night;34;11;43;2;33;10;1;1
Steinstra�e;2022-10-11 07:00:00 +0200;Tuesday;143;5;partly-cloudy-night;86;57;139;4;84;55;2;2
Steinstra�e;2022-10-11 08:00:00 +0200;Tuesday;269;5;partly-cloudy-day;146;123;262;7;142;120;4;3
Steinstra�e;2022-10-11 09:00:00 +0200;Tuesday;709;6;partly-cloudy-day;358;351;676;33;342;334;16;17
Steinstra�e;2022-10-11 10:00:00 +0200;Tuesday;1258;7;partly-cloudy-day;651;607;1197;61;615;582;36;25
Steinstra�e;2022-10-11 11:00:00 +0200;Tuesday;1728;9;partly-cloudy-day;865;863;1659;69;829;830;36;33
Steinstra�e;2022-10-11 12:00:00 +0200;Tuesday;1806;10;partly-cloudy-day;906;900;1755;51;876;879;30;21
Steinstra�e;2022-10-11 13:00:00 +0200;Tuesday;1691;12;partly-cloudy-day;816;875;1622;69;788;834;28;41
Steinstra�e;2022-10-11 14:00:00 +0200;Tuesday;1514;14;partly-cloudy-day;715;799;1447;67;681;766;34;33
Steinstra�e;2022-10-11 15:00:00 +0200;Tuesday;1851;15;partly-cloudy-day;977;874;1769;82;927;842;50;32
Steinstra�e;2022-10-11 16:00:00 +0200;Tuesday;1720;16;partly-cloudy-day;871;849;1629;91;821;808;50;41
Steinstra�e;2022-10-11 17:00:00 +0200;Tuesday;1359;15;clear-day;715;644;1307;52;689;618;26;26
Steinstra�e;2022-10-11 18:00:00 +0200;Tuesday;748;14;clear-day;356;392;727;21;346;381;10;11
Steinstra�e;2022-10-11 19:00:00 +0200;Tuesday;304;12;clear-night;154;150;293;11;148;145;6;5